RH
92 82 84 80 79 78 78 77 80 81 81 82 82 82 80 79 80 79 78 76 76 75 74 74 72 70 72 72 74 74 74 75 75 76 75 79 79 78 79 78 80 77 78
84 85 84 82 79 80 79 80 81 81 80 80 81 80 76 76 76 76 76 77 78 74 73 72 72 76 73 74 74 73 79 78 74 77 84 84 73 75 75 76 77 82 78
84 84 82 83 81 80 81 80 80 78 77 78 78 78 76 75 76 76 74 76 75 76 75 75 75 73 73 75 73 78 82 79 69 67 76 87 82 72 74 74 76 79 78
83 87 85 84 81 80 81 80 80 75 76 77 77 77 76 76 75 73 74 74 75 76 72 73 73 73 74 72 73 80 74 77 74 61 78 81 76 77 75 71 76 78 79
84 87 81 82 82 78 79 77 79 74 73 74 75 73 75 74 73 73 75 76 77 73 72 73 74 73 72 72 79 71 69 65 64 70 83 90 92 78 73 71 80 77 78
82 77 79 77 75 75 77 76 73 72 74 74 74 73 74 69 72 73 75 76 75 71 71 72 72 70 70 70 77 75 70 69 72 84 82 83 89 81 71 69 73 75 78
86 83 80 80 79 77 75 74 74 74 75 75 73 70 70 71 73 74 74 74 74 72 71 69 70 70 71 69 71 75 74 73 83 92 87 86 86 77 77 73 76 75 77
86 84 82 77 77 77 76 76 75 75 76 72 70 72 71 69 70 72 75 75 73 71 69 69 70 72 70 70 66 73 78 76 72 87 90 91 83 76 74 68 72 76 77
85 90 92 86 75 75 75 74 73 75 75 69 69 69 69 69 69 73 74 72 70 69 68 68 68 70 67 68 64 76 75 79 86 94 84 91 76 73 80 70 75 74 76
86 90 96 95 93 92 87 75 72 73 76 70 67 67 70 70 69 68 76 74 69 69 68 68 67 69 75 81 75 79 82 80 90 91 94 86 76 72 74 70 70 73 75
88 93 95 94 96 96 92 83 77 73 76 75 75 74 79 95 90 80 77 76 70 69 68 68 69 72 84 82 82 74 72 96 90 94 96 88 82 77 74 67 71 71 72
94 94 94 97 98 97 92 94 93 94 96 97 94 94 98 96 95 78 76 75 73 70 70 70 72 75 87 94 94 86 94 94 96 95 90 76 86 78 72 69 72 72 71
85 88 96 97 98 98 98 98 99 99 99 97 91 96 94 92 96 94 92 89 90 83 93 79 87 89 92 96 95 96 94 96 99 97 87 84 82 76 69 72 78 73 71
85 90 94 96 99 98 99 99 99 98 94 97 96 93 96 96 96 96 97 94 96 91 87 90 93 93 94 94 96 94 90 96 98 97 95 86 78 74 71 71 72 73 74
86 85 90 95 98 98 99 99 93 92 89 90 91 95 95 93 97 94 92 92 90 96 93 95 95 96 92 94 95 93 89 93 94 98 96 80 79 77 73 74 76 76 75
80 87 92 95 97 95 98 98 90 86 91 90 95 94 95 97 97 93 88 81 86 95 98 94 94 94 94 92 95 93 91 93 92 94 95 90 83 82 78 75 73 74 74
81 84 91 95 95 97 97 95 95 92 82 88 87 86 90 92 94 94 91 84 89 97 97 97 94 93 94 84 90 92 94 88 92 90 94 94 86 83 80 78 79 79 77
78 88 90 82 93 98 98 96 92 86 92 95 95 95 88 87 92 95 90 82 91 92 95 94 93 86 84 93 96 96 97 95 92 91 95 95 93 84 83 83 83 82 77
79 87 95 91 94 97 96 97 96 92 96 97 96 93 91 89 85 86 82 87 81 79 94 84 91 87 89 92 86 96 98 97 88 82 90 91 93 89 95 87 86 84 76
77 84 92 92 94 93 97 98 97 97 97 96 90 92 90 89 80 80 75 90 85 87 97 94 87 90 90 93 81 92 96 97 91 95 91 87 91 90 92 95 93 87 84
76 84 87 92 92 87 97 97 98 98 96 97 94 91 89 82 76 81 83 91 88 93 91 91 90 91 93 96 91 93 93 93 96 99 98 95 87 89 91 96 96 94 86
76 81 87 87 92 88 90 92 96 96 90 94 91 92 82 82 77 80 86 93 83 83 84 92 92 93 92 95 94 95 85 86 92 97 97 92 95 94 91 90 95 92 90
77 80 83 84 86 87 89 94 96 88 95 96 85 83 82 79 73 77 88 91 84 77 91 92 91 86 93 91 94 86 89 88 96 95 96 93 94 96 95 93 89 88 92
71 74 79 81 83 84 88 93 92 80 93 85 85 78 81 82 74 76 82 88 89 93 83 87 84 90 89 94 98 93 92 89 91 92 94 94 92 96 97 97 97 94 92
65 73 78 81 84 78 86 92 93 84 83 86 91 89 90 87 76 72 83 84 77 92 91 90 84 85 91 94 95 94 90 96 97 96 93 92 91 91 96 98 94 98 97
63 67 77 83 86 83 85 90 92 88 92 94 94 94 93 89 87 80 75 84 83 90 90 85 88 80 88 91 94 94 94 95 96 96 98 96 93 91 92 97 98 97 98
Wind_Speed
6 10 14 14 16 15 13 15 15 14 15 15 15 16 16 15 15 13 14 14 13 12 10 9 7 5 6 7 10 8 8 12 11 11 8 10 10 12 12 15 14 12 16
11 10 15 14 16 15 14 14 14 14 14 14 15 15 14 13 13 12 11 10 12 10 8 7 7 6 6 7 9 9 12 10 9 11 9 6 8 7 12 12 13 12 17
10 9 11 15 17 16 15 14 14 14 14 14 14 14 12 11 10 11 10 9 8 9 7 6 7 7 7 8 6 11 7 7 7 9 11 4 3 6 10 13 14 16 17
11 6 7 13 14 17 17 14 14 14 13 12 13 12 12 10 9 9 9 10 8 8 5 6 5 6 8 7 7 10 5 3 5 5 3 3 3 0 6 14 11 14 17
10 6 9 14 15 17 17 14 13 13 13 12 13 12 12 11 10 10 9 9 9 7 7 7 6 6 7 8 12 11 7 7 5 4 3 4 3 2 8 12 9 12 15
10 9 13 15 16 16 17 16 13 13 13 14 14 14 13 11 9 10 10 10 9 7 5 5 6 5 6 8 13 11 4 5 4 4 1 1 1 3 2 11 11 12 15
10 8 10 16 16 15 16 16 15 14 14 15 14 14 11 11 9 9 10 8 9 7 6 4 5 5 5 8 12 11 9 10 1 2 3 3 2 5 8 6 10 14 14
12 8 7 14 15 15 14 14 14 13 12 14 14 12 10 10 8 9 11 9 8 7 5 4 4 4 1 2 3 12 15 13 4 1 2 3 5 6 6 8 9 11 14
9 7 5 5 11 15 13 11 11 10 10 10 11 10 9 8 7 8 9 7 6 6 6 7 4 2 3 3 1 5 11 15 3 3 3 4 4 3 7 7 10 10 14
7 5 5 3 5 5 4 11 11 11 11 10 7 6 6 6 6 4 6 4 6 7 7 6 3 3 3 6 3 6 7 6 4 4 3 2 2 4 8 7 9 10 12
5 6 5 5 5 5 4 6 9 10 10 9 7 7 4 3 1 1 3 6 7 8 6 5 4 2 14 13 13 15 9 3 3 2 2 7 9 9 12 11 11 12 12
8 7 7 6 6 5 3 3 3 2 3 4 4 4 3 2 2 2 3 8 9 9 8 5 5 12 10 3 8 12 3 3 3 3 3 5 11 11 16 15 14 13 13
10 6 7 7 6 6 4 3 2 1 3 3 3 3 2 1 3 2 2 3 2 6 1 3 6 4 6 5 9 4 4 4 2 1 3 11 10 14 15 14 13 13 13
9 7 6 6 7 5 3 3 3 2 3 3 3 3 2 1 2 3 2 2 2 0 1 4 4 3 7 7 8 7 5 5 2 2 2 8 14 16 13 17 15 14 15
11 10 9 8 7 5 5 3 3 3 2 3 3 2 2 3 2 3 3 3 4 3 3 2 5 4 4 4 7 7 9 8 4 2 2 10 14 16 15 15 15 16 16
12 12 10 10 8 5 4 4 3 2 3 2 1 1 5 3 4 4 2 3 2 4 4 5 4 2 1 1 4 7 7 5 4 3 3 5 15 16 14 14 14 15 16
12 12 11 10 8 6 6 5 3 3 3 2 2 3 5 4 4 5 3 3 4 4 6 3 3 2 1 4 5 5 4 1 4 4 3 3 7 13 12 13 13 13 14
12 13 11 10 10 7 6 4 3 4 2 1 1 2 4 5 5 4 4 2 4 4 4 4 2 2 2 4 2 3 1 3 6 3 1 2 3 4 9 13 12 12 14
12 11 10 9 10 8 6 4 5 5 3 3 2 3 5 5 6 4 2 1 5 4 3 4 2 2 2 2 4 5 4 5 3 5 3 3 3 3 3 12 13 13 15
11 11 10 8 10 8 5 4 3 3 3 3 4 4 5 5 5 5 2 4 3 1 5 3 1 1 2 1 3 5 5 4 5 4 2 2 5 5 4 5 6 7 14
11 11 11 9 9 8 3 4 3 3 2 3 4 6 7 5 6 3 3 3 4 4 4 4 1 1 0 1 3 4 3 3 2 3 4 3 5 6 4 4 3 3 6
13 11 10 10 9 7 5 3 3 3 3 1 2 4 4 5 4 4 5 3 4 4 2 4 3 1 1 1 2 3 1 3 1 3 3 3 1 3 5 5 5 4 4
13 13 12 12 11 8 7 3 2 3 2 2 2 3 3 4 5 5 6 5 3 5 2 3 3 4 3 1 2 4 2 4 1 1 3 3 2 3 3 4 5 6 5
14 12 12 13 11 8 8 5 6 5 5 4 3 2 3 6 5 5 6 5 4 4 3 1 3 3 4 3 2 2 2 3 1 2 2 4 3 3 1 2 3 6 5
15 14 13 13 11 10 8 7 5 4 4 2 2 5 6 5 6 6 6 6 5 3 3 3 3 2 2 2 3 3 1 2 1 2 2 3 3 3 4 4 3 1 5
14 13 12 13 12 9 9 8 8 8 6 4 3 3 3 2 3 5 5 6 5 4 4 4 4 4 3 2 2 4 3 3 2 2 2 4 4 3 3 3 4 6 4
Wind_Direction
156 151 150 142 139 135 129 125 116 111 108 106 105 101 100 103 106 115 124 131 132 131 137 148 152 122 103 104 96 96 89 77 78 73 96 121 129 131 136 132 136 135 133
137 153 149 142 140 139 136 134 123 118 114 109 105 104 111 114 120 122 130 143 131 136 141 153 154 127 125 117 109 104 88 87 94 101 88 63 123 142 138 135 140 141 136
134 143 144 142 144 143 139 140 128 124 120 114 110 115 119 120 125 124 127 120 126 136 143 146 138 134 122 107 115 97 109 133 144 117 107 92 104 173 162 142 145 147 143
135 138 139 142 142 143 139 142 135 130 124 121 118 122 121 127 121 121 125 130 129 118 143 145 133 135 129 128 111 121 128 146 206 135 90 72 17 161 168 141 151 151 148
126 130 145 139 141 146 147 144 139 137 134 131 122 120 121 120 114 115 120 121 109 126 157 134 142 149 131 135 130 140 120 124 69 50 69 65 25 264 149 161 153 160 149
128 137 139 142 141 146 149 150 147 146 142 132 126 122 122 120 113 117 123 116 116 140 137 132 146 144 155 144 145 158 154 235 84 359 347 316 336 349 187 172 179 169 167
132 134 141 145 147 150 148 150 150 153 145 137 136 130 124 118 110 117 111 115 123 149 134 152 174 175 187 149 159 181 195 242 272 253 283 235 241 312 327 198 184 182 169
138 144 151 148 148 147 151 153 151 152 152 145 136 130 124 126 108 121 117 123 140 141 137 209 203 212 256 316 166 182 199 224 226 199 193 222 237 272 281 223 192 184 177
128 121 115 142 154 146 145 145 145 147 150 148 144 126 116 128 111 112 125 129 144 161 168 224 229 270 309 341 288 140 215 232 216 303 256 172 181 229 271 202 199 186 179
138 138 136 123 99 97 137 148 159 172 165 158 169 132 117 116 128 123 122 168 187 199 195 232 247 294 359 89 50 192 202 216 224 279 293 279 332 266 245 210 207 190 183
156 153 161 163 166 167 159 175 171 177 171 168 160 152 84 71 33 59 192 204 220 227 222 245 259 312 93 22 320 303 272 209 217 246 295 281 266 259 235 228 212 197 192
175 177 174 164 161 153 159 153 153 176 81 101 109 95 88 47 7 353 293 253 241 245 245 260 267 72 85 60 291 310 333 317 225 189 229 266 256 238 227 203 205 198 196
180 180 167 158 146 154 161 147 105 160 115 141 142 115 108 343 15 347 283 286 230 260 9 62 70 95 120 188 260 224 282 302 270 214 334 316 228 210 207 200 200 195 198
178 176 168 148 140 161 151 125 142 179 175 149 131 128 79 308 321 297 281 286 251 71 257 77 93 207 181 227 223 249 249 267 261 317 286 279 187 204 202 205 207 204 198
178 178 169 150 150 178 131 143 169 202 187 131 141 144 192 213 249 273 262 242 215 129 230 135 173 195 179 244 217 217 245 276 245 202 239 209 200 214 205 202 206 202 199
179 178 161 155 156 161 154 171 175 172 207 170 136 206 227 276 274 249 306 304 124 180 177 205 104 74 218 289 210 220 234 268 180 191 195 185 207 212 209 204 197 198 194
183 163 168 151 157 165 162 168 173 217 213 207 233 261 231 188 254 278 303 254 147 171 153 170 110 144 79 235 250 243 247 94 129 148 201 175 196 202 202 196 197 199 194
166 169 159 165 164 163 157 173 187 224 220 244 168 257 278 239 233 270 244 176 128 150 144 115 142 174 144 212 167 281 210 137 127 134 308 225 172 183 202 192 195 197 201
164 157 158 159 161 168 171 170 200 229 188 203 193 241 258 263 253 228 215 340 161 141 146 132 213 174 89 38 55 16 347 89 153 139 183 210 201 203 200 194 192 197 201
160 157 159 159 156 170 158 160 206 220 236 186 216 208 248 257 258 200 82 70 78 200 105 97 229 80 134 94 60 69 354 49 109 140 145 226 200 211 216 210 188 203 206
161 157 163 157 163 161 152 152 176 204 216 220 232 240 232 207 214 130 77 53 108 78 94 143 130 11 360 47 84 28 356 8 72 114 160 167 196 188 205 239 237 205 218
167 168 161 160 160 165 168 156 156 154 236 293 268 262 264 192 178 154 118 99 116 127 117 110 147 172 75 100 110 103 253 305 6 90 296 213 138 182 183 200 214 230 234
173 175 168 162 168 172 176 140 94 122 84 239 217 191 240 226 184 163 126 142 162 123 113 132 133 158 135 149 197 140 92 231 277 177 241 277 148 180 201 192 215 225 227
181 175 167 163 172 182 177 170 164 175 161 223 195 216 266 231 199 172 157 158 175 144 159 139 119 170 134 140 89 33 138 162 117 9 327 304 317 282 218 249 277 217 223
177 175 175 169 173 186 178 178 177 187 178 197 209 198 200 214 211 187 171 185 181 181 192 148 159 122 107 136 147 188 104 42 63 141 311 317 304 214 226 214 201 216 204
177 177 177 176 182 186 184 187 190 189 169 188 163 204 185 213 201 204 185 199 188 176 185 175 158 146 149 163 176 155 156 164 185 126 185 256 231 282 220 234 177 207 184